Regional Weather Roundup
Issued by NWS

Home | Current Version | Previous Version | Text Only | Print | Product List | Glossary On
Versions: 1 2 3 4 5 6 7 8 9 10 11 12 13 14 15 16 17 18 19 20 21 22 23 24 25 26 27 28 29 30 31 32 33 34 35 36 37 38 39 40 41 42 43 44 45 46 47 48 49 50
000
ASUS43 KMKX 021521
RWRWI

WISCONSIN REGIONAL WEATHER ROUNDUP
NATIONAL WEATHER SERVICE MILWAUKEE/SULLIVAN WI
1000 AM CDT TUE JUN 02 2015

NOTE: "FAIR" INDICATES FEW OR NO CLOUDS BELOW 12,000 FEET WITH NO
SIGNIFICANT WEATHER AND/OR OBSTRUCTIONS TO VISIBILITY.

WIZ001-002-006>008-014>016-023>028-021600-
NORTHWEST WISCONSIN

CITY           SKY/WX    TMP DP  RH WIND       PRES   REMARKS
SUPERIOR ARPT  MOSUNNY   52  42  68 NE5       30.06F
ASHLAND        PTSUNNY   65  42  43 S14       30.09
HAYWARD        SUNNY     63  42  46 S13       30.11F
SIREN          SUNNY     66  48  52 S12G17    30.07F
CUMBERLAND     SUNNY     61  45  55 S9        30.10F
RICE LAKE      SUNNY     63  43  47 SE13      30.12F
CHETEK         SUNNY     62  46  55 SE8       30.11F
LADYSMITH      SUNNY     62  42  47 SE9       30.16F
EAU CLAIRE     SUNNY     63  43  48 S12       30.12F
MENOMONIE      SUNNY     64  47  54 SE10      30.11F
NEW RICHMOND   MOSUNNY   65  51  60 S12       30.08F
OSCEOLA        MOSUNNY   66  51  59 S13       30.09F
$$

WIZ003>005-009-010-017-018-021600-
NORTH CENTRAL WISCONSIN

CITY           SKY/WX    TMP DP  RH WIND       PRES   REMARKS
MANITOWISH WTR PTSUNNY   59  39  48 S8        30.14F
ARBOR VITAE    MOSUNNY   60  40  47 S9        30.15F
WOODRUFF       MOSUNNY   60  40  47 S9        30.15F
RHINELANDER    MOSUNNY   60  35  39 S9        30.17F
EAGLE RIVER    PTSUNNY   59  35  41 S7        30.16F
LAND O LAKES   PTSUNNY   60  35  38 SW7       30.16F
PHILLIPS       SUNNY     60  40  46 S8        30.14F
TOMAHAWK       SUNNY     60  41  49 S6        30.17F
MEDFORD        SUNNY     57  40  52 S9        30.17S
MERRILL        NOT AVBL
$$

WIZ029-030-035-036-043>047-021600-
CENTRAL WISCONSIN

CITY           SKY/WX    TMP DP  RH WIND       PRES   REMARKS
WAUSAU         SUNNY     59  41  51 S8        30.16F
MOSINEE        SUNNY     57  43  58 S9        30.19F
MARSHFIELD     SUNNY     60  38  43 S12       30.17F
STEVENS POINT  SUNNY     60  40  47 S8        30.18F
WAUPACA        SUNNY     64  39  39 S8        30.19F
WAUTOMA        SUNNY     64  39  39 S8        30.19F
WISC RAPIDS    SUNNY     63  38  39 S10       30.18F
CAMP DOUGLAS   MOSUNNY   61  46  59 VRB7      30.17F
$$

WIZ011>013-019>022-031-037>040-048>050-021600-
NORTHEAST WISCONSIN

CITY           SKY/WX    TMP DP  RH WIND       PRES   REMARKS
ANTIGO         SUNNY     58  41  52 S8        30.18F
SHAWANO        SUNNY     63  41  44 S3        30.19F
OCONTO         MOSUNNY   62  44  52 CALM      30.19F
STURGEON BAY   MOSUNNY   61  45  55 E5        30.23F
GREEN BAY      SUNNY     63  43  48 SE3       30.20F
MANITOWOC      SUNNY     57  44  62 E8        30.21F
APPLETON       MOSUNNY   63  37  39 SE9       30.21F
CLINTONVILLE   SUNNY     61  41  48 SE8       30.19F
OSHKOSH        SUNNY     63  42  46 VRB5      30.19F
$$

WIZ032>034-041-042-053>061-021600-
SOUTHWEST WISCONSIN

CITY           SKY/WX    TMP DP  RH WIND       PRES   REMARKS
LA CROSSE      SUNNY     64  46  52 S10       30.14F
SPARTA         SUNNY     63  42  47 S8        30.16F
VIROQUA        SUNNY     61  46  58 SE9       30.17F
BOSCOBEL       SUNNY     65  48  54 VRB3      30.17F
PRAIRIE DU CHI SUNNY     62  47  58 SE5       30.15F
PLATTEVILLE    CLOUDY    60  49  67 S7        30.17F
$$

WIZ056-057-062-063-064-067-068-021600-
SOUTH CENTRAL WISCONSIN

CITY           SKY/WX    TMP DP  RH WIND       PRES   REMARKS
REEDSBURG      SUNNY     60  43  52 SE7       30.17F
BARABOO/DELLS  SUNNY     61  43  51 SW8       30.18F
LONE ROCK      SUNNY     62  42  47 SE6       30.18F
MINERAL POINT  SUNNY     61  45  55 SE6       30.18F
MADISON        MOSUNNY   62  42  47 S7        30.18F
MIDDLETON      SUNNY     64  40  42 S8        30.19F
WATERTOWN      SUNNY     63  46  54 SE5       30.19F
MONROE         SUNNY     61  43  51 S6        30.19F
JANESVILLE     SUNNY     63  45  51 SE8       30.18F
$$

WIZ051-052-058>065-066-070>072-021600-
SOUTHEAST WISCONSIN

CITY           SKY/WX    TMP DP  RH WIND       PRES   REMARKS
MILWAUKEE      MOSUNNY   60  43  53 E5        30.21F
WAUKESHA       SUNNY     61  41  48 E3        30.20F
MILWAUKEE/TIMM SUNNY     61  39  44 CALM      30.22F
RACINE         SUNNY     59  44  57 E5        30.22F
BURLINGTON     SUNNY     61  46  58 E3        30.19F
KENOSHA        SUNNY     60  47  61 E6        30.20F
FOND DU LAC    SUNNY     64  43  46 SE6       30.19F
SHEBOYGAN      SUNNY     62  45  53 S5        30.21F
WEST BEND      SUNNY     63  39  42 SE3       30.20F
JUNEAU         SUNNY     62  43  49 SE5       30.20F
$$

LSZ147-162-021600-
LAKE SUPERIOR

STATION/POSITION TIME  TEMP    WIND        PRES    WAVE
                       AIR SEA DIR/SP/G            HT/PER
                 (UTC) (F)     (DEG/KT/KT) (MB)    (FT/S)
W MID LAKE BUOY  1450   42 37  160/  6/  8   N/A     1
DEVILS ISLAND    1500   60     180/  6/  9   N/A
PORT WING        1400   45      30/  7/  8   N/A
SAXON HARBOR     1400   62     200/  6/ 12   N/A
$$

LMZ867-665-643>646-021600-
LAKE MICHIGAN

STATION/POSITION TIME  TEMP    WIND        PRES    WAVE
                       AIR SEA DIR/SP/G            HT/PER
                 (UTC) (F)     (DEG/KT/KT) (MB)    (FT/S)
CHAMBERS ISLAND  1400   59     350/  2/  3   N/A
N MID LAKE BUOY  1450   41 37  190/  2/  4   N/A     0
NORTHPORT PIER   1400   49     130/ 10/ 12   N/A
SISTER BAY       1418   56     340/  6/  7   N/A
ALGOMA LAKESHORE 1309             CALM       N/A
KEWAUNEE LAKESHO 1400   47     130/  2/  5   N/A
SHEBOYGAN LAKESH 1500   49     140/ 12/ 12   N/A
PORT WASHINGTON  1440   51      60/  3/  5   N/A
ATWATER BUOY     1500   46      50/  6/  6   N/A
MILWAUKEE LAKESH 1500   46      50/  7/  7   N/A
S MID LAKE BUOY  1450   44 39  130/  6/  8   N/A     1
KENOSHA   LAKESH 1500   49      70/  4/  4   N/A
$$

TC  - TEMPERATURE IN CELSIUS
VSB - VISIBILITY IN STATUTE MILES
WCI - WIND CHILL INDEX
HX  - HEAT INDEX



USA.gov is the U.S. government's official web portal to all federal, state and local government web resources and services.